Regional Weather Roundup
Issued by NWS Cleveland, OH

Home | Current Version | Previous Version | Graphics & Text | Print | Product List | Glossary On
Versions: 1 2 3 4 5 6 7 8 9 10 11 12 13 14 15 16 17 18 19 20 21 22 23 24 25 26 27 28 29 30 31 32 33 34 35 36 37 38 39 40 41 42 43 44 45 46 47 48 49 50
000
ASUS41 KCLE 291810
RWRCLE
OHIO REGIONAL WEATHER ROUNDUP
NATIONAL WEATHER SERVICE CLEVELAND, OH
200 PM EDT MON AUG 29 2016

NOTE: "FAIR" INDICATES FEW OR NO CLOUDS BELOW 12,000 FEET WITH NO
SIGNIFICANT WEATHER AND/OR OBSTRUCTIONS TO VISIBILITY.

OHZ001>008-015>018-024>027-034-035-043-044-291900-
   NORTHWEST OHIO

CITY           SKY/WX    TMP DP  RH WIND       PRES   REMARKS
DEFIANCE       MOSUNNY   84  70  62 E7        30.26F
FINDLAY        MOSUNNY   83  66  56 VRB7      30.26S
TOLEDO EXPRESS MOSUNNY   82  69  64 VRB6      30.27S
TOLEDO EXEC    MOSUNNY   81  70  69 E8        30.28S
LIMA           MOSUNNY   84  71  65 E7        30.27S
$$

OHZ009>014-019>023-028>033-038-089-291900-
   NORTHEAST OHIO

CITY           SKY/WX    TMP DP  RH WIND       PRES   REMARKS
CLE-HOPKINS    SUNNY     83  62  49 N13       30.28F
CLE-LAKEFRONT  SUNNY     80  63  55 N15       30.26S
CUY CO. ARPT   SUNNY     82  66  57 NE16      30.27F
LORAIN-ELYRIA  SUNNY     81  63  54 NE9       30.27F
ASHTABULA      SUNNY     80  60  50 VRB7      30.28S
AKRON-CANTON   MOSUNNY   84  61  45 VRB6      30.27S
WOOSTER        SUNNY     82  64  54 N8        30.27F
MANSFIELD      MOSUNNY   85  66  53 MISG      30.28S
YOUNGSTOWN     MOSUNNY   82  56  40 N8        30.27S
$$

OHZ042-051>053-060>062-070>072-077>081-291900-
  SOUTHWEST OHIO

CITY           SKY/WX    TMP DP  RH WIND       PRES   REMARKS
CINC-COVINGTON MOSUNNY   88  72  58 VRB5      30.23S HX  94
CINC-LUNKEN    MOSUNNY   88  72  58 N8        30.21F HX  94
HAMILTON       SUNNY     88  71  57 MISG      30.23F HX  94
DAYTON         MOSUNNY   86  70  58 NE7       30.26S HX  90
WRIGHT-PAT AFB MOSUNNY   86  69  55 NE8       30.24S HX  90
DAYTON GENERAL MOSUNNY   87  71  58 NE8       30.24S HX  93
WILMINGTON     SUNNY     84  71  65 NE6       30.24S
$$

OHZ036-037-039>041-045>050-054>059-063>069-073>076-082>088-291900-
  CENTRAL AND SOUTHEAST OHIO

CITY           SKY/WX    TMP DP  RH WIND       PRES   REMARKS
COLUMBUS       MOSUNNY   84  70  62 NE8       30.23F
OSU AIRPORT    MOSUNNY   86  70  58 N8        30.25S HX  90
BOLTON FIELD   PTSUNNY   84  72  65 CALM      30.25S
RICKENBACK AFB MOSUNNY   84  70  63 E6        30.23S
NEWARK         PTSUNNY   85  69  58 VRB7      30.24S
MARION         MOSUNNY   84  67  56 E7        30.26F
LANCASTER      SUNNY     86  70  58 VRB3      30.24F HX  90
ZANESVILLE     SUNNY     86  67  52 NE8       30.24S
NEW PHILLY     SUNNY     88  63  43 VRB7      30.25S
$$



USA.gov is the U.S. government's official web portal to all federal, state and local government web resources and services.